CamptonHillsWeather.com

Find the Weather for any City, State  
or Zipcode, or Country:

Campton Hills, IL Weather
Local Radar

Local Radar

Graphs, Details
Graphs and Gauges
Detailed Weather
Detailed Reports
Ajax Version (old)
Central Kane Co Summary
Davis Current Weather Graphs
Davis 24 Hour Weather History

CW3778 Data

Weather Underground
Maps
Temperature
Heat Index
Windchill
Humidity
Radar
Dew Point
Wind
Visibility
Visible Satellite
Satellite
Fronts
Snow Depth
Jet Stream
Flight Rules
Forecast Maps
Temperature Forecast
Maximum Temperature Forecast
Minimum Temperature Forecast
Dewpoint Forecast
Prevalent Weather
12Hr Probability of Precip.
Sky Cover
Health Maps
UV Forecast
Air Quality
Peak Air Quality Index
Weather Station
Davis Instruments Vantage Pro
Current Conditions [Select Refresh to Update]

Updated: 2:32am on 10/31/14

(location)
Currently:
44.0F

Clear
Overcast

High: 44.8 F< 
(1:58am
Low: 43.8 F 
(12:00am)
Wind: N 8 mph
Gentle Breeze
Gust: 15 mph
Today's High Wind: 19 mph (2:29am)
Humidity: 81%
Pressure: 30.07 in  (Steady
Pressure Rate: 0.003 in/hr
Dew Point: 38.6F
Wind Chill: 39.5 F
Heat Index (feels like): 48.4 F
Comfort Level: Cool
Temperature Rate:  -0.48F/hr
 
5 Day Forecast
 
Fri Sat Sun Mon Tue
Clear Clear Clear Clear Clear
Partly Cloudy Partly Cloudy Partly Cloudy Mostly Cloudy Chance Rain
43 45 50 55 61
28 27 36 46 34

Records and Normals
 
Temperature Forecast Normal Record
High 43 0 0
(0)
Low 28 0 0
(0)
 
Links
 
 
Weather Advisories
Warning Date: 8:56 PM CDT on October 30, 2014
Warning Description: Wind Advisory
Full Advisory Text...
Weather Map

Web Cam

Almanac
 
Sunrise:  
7:26am
Moonrise: 
2:09pm

Moon Phase:
46%

Sunset: 
5:50pm
Moonset:  
12:07am
 Star Chart...
Rainfall Totals
Hourly Rain 0.01 in
Daily Rain: 0.01 in
Monthly Rain: 3.20 in
Yearly Rain: 34.12 in
Normal Rain, month to date: 0.00 in
Normal Rain, year to date: 0.00 in
Link to Village of Campton Hills Map

Link to Counties of Illinois Map

Local Weather Exchange Network
Station ID City 
(Click for Map Location)
Neighborhood 
(Click for History)
Last Update (Date & Time) Temperature
 ()
Dew
Point ()
Humidity 
(%)
Wind 
(mph)
from the Wind Gust 
(mph) 
Pressure(in) Hourly
Rain(in)
KILGENEV5 Geneva meso_neigh1 10/31 02:26:01 45.7 40.0 79 4 SW 9 29.99 0.00
KILSTCHA10 St. Charles Hunt Club 10/31 02:26:04 45.5 41.0 84 0 ENE 2 29.61 0.00
KILSOUTH6 South Elgin Thornwood 10/31 00:50:25 45.1 40.0 83 3 North 0 29.91 0.00
KILSTCHA8 St. Charles Ronzheimer Ave. & S. Tyler Rd. 10/31 02:26:09 45.5 39.0 79 0 NNW 6 30.03 0.00
KILGENEV3 Geneva Mill Creek (NE) 10/31 02:26:01 46.0 40.0 79 5 NNW 14 30.08 0.00
KILSTCHA1 St Charles CamptonHillsWeather.com Central Kane County 10/31 02:26:07 44.7 40.0 83 19 NNE 19 30.07 0.00
KILELGIN13 Elgin Creek Side 10/31 02:26:01 45.7 39.0 78 1 North 2 29.12 0.00
KILSOUTH5 South Elgin Concord Park 10/31 02:21:58 45.1 41.0 86 2 NNW 0 29.79 0.00
KILGENEV2 Geneva Mill Creek 10/31 02:14:40 45.3 40.0 80 3 WNW 9 30.00 0.00
KILELBUR7 Elburn Cheval-De-Selle 10/31 02:11:51 38.6 38.0 99 6 WNW 0 29.97 0.00
KILBATAV1 Batavia Tri-Cities on the Fox River 10/31 02:25:52 46.1 38.0 72 0 NW 12 30.06 0.00
KILELBUR5 Elburn Prairie Highlands 10/31 02:25:16 45.8 41.0 82 7 NW 15 30.04 0.00
KILBATAV3 Batavia West Batavia 10/31 02:24:53 45.6 40.0 80 1 North 0 30.02 0.00
KILELBUR6 Elburn Columbine Square 10/31 02:22:41 44.8 40.0 82 1 NW 5 30.01 0.00
KILBATAV5 Batavia Fermi National Accelerator Laboratory 10/31 02:23:50 45.9 39.0 78 10 WNW 12 30.00 0.00
KILWESTC5 West Chicago THEBROWNHOUSE.ORG 10/31 02:17:26 45.1 36.0 70 0 NNW 0 30.01 0.00
KILWESTC8 West Chicago Ingalton Hills Estates 10/31 02:26:09 46.0 40.0 79 10 WSW 10 30.16 0.00
KILNORTH11 North Aurora Waterford Oaks 10/31 02:26:03 46.1 40.0 80 2 NNW 12 30.04 0.00
KILELGIN10 Elgin Wing Park 10/31 02:20:17 45.7 37.0 72 4 North 5 29.21 0.00
KILELGIN14 Elgin Elgin, IL 10/31 02:26:09 44.4 38.0 79 2 NW 6 29.97 0.00
KILCAROL5 Carol Stream Stonehenge Court 10/31 02:25:05 46.0 22.0 38 5 WNW 5 30.01 0.00
KILGILBE2 Gilberts Gilberts, IL 10/31 02:26:06 43.5 36.0 75 3 North 13 30.23 0.00
KILELGIN11 Elgin Trout Park 10/31 00:15:52 44.4 37.0 75 4 NNE 6 30.05 0.00
KILWINFI3 Winfield Fredericksburg Farm 10/31 02:26:04 45.4 39.0 78 3 NNE 5 29.96 0.00
KILWINFI2 Winfield Winfield Heights (SarahNet) 10/31 02:14:58 45.5 39.0 77 0 North 10 30.04 0.00
KILSLEEP3 Sleepy Hollow SLEEPY HOLLOW 10/31 02:26:08 43.4 36.0 75 2 WSW 5 29.54 0.00
KILCAROL6 Carol Stream Merbach Ct 10/31 02:26:03 46.0 39.0 75 6 North 7 29.64 0.00
KILSLEEP2 Sleepy Hollow Sleepy Hollow Manor 10/31 02:11:25 44.8 40.0 83 10 NE 0 29.92 0.00
KILWARRE2 Warrenville meso_neigh29 10/31 02:26:07 46.4 40.0 78 5 NW 13 30.02 0.00
KILHANOV2 Hanover Park meso_neigh30 10/31 02:25:38 45.5 38.0 76 4 SW 7 30.03 0.00
KILWHEAT8 Wheaton Wheaton Sanitary District 10/31 02:24:37 47.2 41.0 80 0 NW 8 30.04 0.01
KILWHEAT5 Wheaton N9ABF - West Wheaton 10/31 02:24:39 45.9 39.0 76 3 NW 0 30.00 0.00
KILSCHAU9 Schaumburg Schaumburg West 10/31 02:26:05 45.5 45.0 99 2 NNW 9 30.01 0.00
KILEASTD2 East Dundee Rock Road Industrial Park 10/31 02:21:11 44.7 35.0 69 8 WNW 20 30.01 0.00
KILCARPE6 Carpentersville Carpentersville 10/31 02:25:35 43.2 38.0 83 4 East 4 29.16 0.00
KILWHEAT11 Wheaton Wheaton SW Orth Ct 10/31 02:09:49 47.5 39.0 73 0 West 0 30.12 0.00
KILNAPER19 Naperville Brookdale Lakes 10/31 02:26:06 46.4 40.0 77 1 WSW 3 29.99 0.00
KILCARPE5 Carpentersville Cville WWTF 10/31 02:13:46 46.4 40.0 79 3 North 12 30.04 0.00
KILAUROR24 Aurora Near Pine Knoll/Wolf Run 10/31 02:23:02 45.3 38.0 77 4 NW 0 30.04 0.00
KDPA Chicago DuPage Official Station 10/31 01:52:00 46.0 38.0 73 13 NW --- 30.04 ---
Full Advisory Text
Warning Description: Wind Advisory

Warning Date: 8:56 PM CDT on October 30, 2014

WarningSum:...Wind Advisory Remains In Effect From 7 Am To 7 Pm Cdt Friday...

Warning Message:* timing...Friday morning through Friday afternoon.
* Winds...northerly to 50 mph.
* Impacts...tree limbs and power lines could be blown down.
Precautionary/preparedness actions...
A Wind Advisory means that sustained winds of 30 to 39 mph...or
gusts between 45 and 57 mph...are likely. Winds this strong can
cause minor property damage unless precautions are taken. Driving
may be difficult...especially in high profile vehicles. Motorists
should be alert and use caution.
        

Ambient Weather and Weather Underground
 Never base important decisions on this or any weather information obtained from the Internet
Updated Automatically by Ambient Weather's Virtual Weather Station  V13.01